Telluride, CO

5:23 AM MDT on August 21, 2017 (GMT -0600)
Telluride Regional

Weather History for KTEX - July, 2012

Change the Weather History Date:

Saturday, July 21, 2012

  Actual Average Record
Temperature  
Mean Temperature 65 °F -  
Max Temperature 77 °F 71 °F 84 °F (2005)
Min Temperature 53 °F 49 °F 44 °F (2002)
Growing Degree Days 15 (Base 50)    
Moisture  
Dew Point 46 °F    
Average Humidity 60    
Maximum Humidity 82    
Minimum Humidity 24    
Precipitation  
Precipitation 0.42 in - - ()
Sea Level Pressure  
Sea Level Pressure 30.54 in    
Wind  
Wind Speed 7 mph (ESE)    
Max Wind Speed 18 mph    
Max Gust Speed 38 mph    
Visibility 10 miles    
Events Rain , Thunderstorm    
Averages and records for this station are not official NWS values.
T = Trace of Precipitation, MM = Missing Value Source: NWS Daily Summary

Daily Weather History Graph

Daily Weather History Graph

Search for Another Location

Airport or City:

Trip Planner

Search our weather history database for the weather conditions in past years. The results will help you decide how hot, cold, wet, or windy it might be!

Date:

Astronomy

Jul. 21, 2012 Rise Set
Actual Time 6:06 AM MDT 8:29 PM MDT
Civil Twilight 5:36 AM MDT 8:59 PM MDT
Nautical Twilight 4:58 AM MDT 9:36 PM MDT
Astronomical Twilight 4:18 AM MDT 10:17 PM MDT
Moon 8:46 AM MDT 9:47 PM MDT
Length of Visible Light 15h 23m
Length of Day
14h 23m
Waxing Crescent, 7% of the Moon is Illuminated
Jul 21
Waxing Crescent
Jul 26
First Quarter
Aug 1
Full
Aug 9
Last Quarter
Aug 17
New

Hourly Weather History & Observations

Time (MDT) Temp. Dew Point Humidity Pressure Visibility Wind Dir Wind Speed Gust Speed Precip Events Conditions
12:15 AM 59.0 °F 44.6 °F 59% 30.53 in 10.0 mi ESE 9.2 mph - N/A Thunderstorm Mostly Cloudy
12:35 AM 59.0 °F 42.8 °F 55% 30.55 in 10.0 mi SSE 15.0 mph 18.4 mph N/A Thunderstorm Overcast
12:55 AM 55.4 °F 46.4 °F 72% 30.59 in 1.2 mi East 13.8 mph 27.6 mph 0.15 in Rain , Thunderstorm Heavy Thunderstorms and Rain
1:15 AM 53.6 °F 46.4 °F 77% 30.57 in 3.0 mi NNE 6.9 mph 17.3 mph 0.21 in Rain , Thunderstorm Thunderstorms and Rain
1:35 AM 55.4 °F 44.6 °F 67% 30.57 in 10.0 mi ENE 6.9 mph - 0.21 in Rain , Thunderstorm Light Thunderstorms and Rain
1:55 AM 53.6 °F 48.2 °F 82% 30.55 in 10.0 mi ESE 13.8 mph 19.6 mph 0.21 in Thunderstorm Overcast
2:15 AM 55.4 °F 48.2 °F 77% 30.55 in 10.0 mi ESE 8.1 mph - N/A   Overcast
3:15 AM 59.0 °F 44.6 °F 59% 30.59 in 10.0 mi ESE 11.5 mph - N/A   Mostly Cloudy
3:35 AM 59.0 °F 44.6 °F 59% 30.60 in 10.0 mi SE 11.5 mph 38.0 mph N/A   Mostly Cloudy
3:55 AM 59.0 °F 44.6 °F 59% 30.58 in 10.0 mi NE 3.5 mph - N/A   Light Drizzle
4:15 AM 57.2 °F 44.6 °F 63% 30.56 in 10.0 mi NNE 5.8 mph - N/A   Overcast
4:35 AM 55.4 °F 46.4 °F 72% 30.56 in 10.0 mi ESE 8.1 mph - N/A   Scattered Clouds
4:55 AM 55.4 °F 46.4 °F 72% 30.56 in 10.0 mi East 3.5 mph - N/A   Clear
5:15 AM 55.4 °F 46.4 °F 72% 30.55 in 10.0 mi ESE 3.5 mph - N/A   Clear
5:55 AM 53.6 °F 46.4 °F 77% 30.55 in 10.0 mi SE 9.2 mph - N/A   Clear
6:15 AM 53.6 °F 46.4 °F 77% 30.55 in 10.0 mi ESE 6.9 mph - N/A   Clear
6:35 AM 53.6 °F 46.4 °F 77% 30.55 in 10.0 mi ESE 5.8 mph - N/A   Clear
6:55 AM 53.6 °F 46.4 °F 77% 30.56 in 10.0 mi ESE 4.6 mph - N/A   Clear
7:15 AM 53.6 °F 46.4 °F 77% 30.56 in 10.0 mi SE 5.8 mph - N/A   Clear
7:35 AM 53.6 °F 46.4 °F 77% 30.56 in 10.0 mi ESE 5.8 mph - N/A   Clear
8:15 AM 55.4 °F 46.4 °F 72% 30.56 in 10.0 mi Calm Calm - N/A   Clear
9:15 AM 62.6 °F 48.2 °F 59% 30.56 in 10.0 mi Calm Calm - N/A   Clear
9:55 AM 68.0 °F 46.4 °F 46% 30.56 in 10.0 mi Calm Calm - N/A   Clear
10:15 AM 69.8 °F 42.8 °F 38% 30.55 in 10.0 mi Calm Calm - N/A   Clear
10:55 AM 71.6 °F 41.0 °F 33% 30.55 in 10.0 mi Calm Calm - N/A   Clear
11:15 AM 73.4 °F 42.8 °F 33% 30.55 in 10.0 mi West 3.5 mph - N/A   Clear
11:35 AM 73.4 °F 39.2 °F 29% 30.55 in 10.0 mi SW 3.5 mph - N/A   Clear
12:15 PM 75.2 °F 37.4 °F 25% 30.53 in 10.0 mi SSE 3.5 mph - N/A   Clear
12:35 PM 75.2 °F 39.2 °F 27% 30.53 in 10.0 mi SW 4.6 mph - N/A   Clear
12:55 PM 77.0 °F 37.4 °F 24% 30.51 in 10.0 mi SW 4.6 mph - N/A   Scattered Clouds
1:15 PM 77.0 °F 44.6 °F 32% 30.51 in 10.0 mi West 18.4 mph 23.0 mph N/A   Scattered Clouds
1:35 PM 73.4 °F 44.6 °F 36% 30.50 in 10.0 mi West 12.7 mph 19.6 mph N/A   Scattered Clouds
1:55 PM 68.0 °F 48.2 °F 49% 30.50 in 10.0 mi SSW 10.4 mph 17.3 mph 0.03 in Rain , Thunderstorm Thunderstorms and Rain
2:15 PM 62.6 °F 53.6 °F 72% 30.53 in 10.0 mi Calm Calm - 0.02 in Rain , Thunderstorm Light Thunderstorms and Rain
2:35 PM 62.6 °F 50.0 °F 63% 30.53 in 10.0 mi Calm Calm - 0.02 in Rain , Thunderstorm Light Thunderstorms and Rain
2:55 PM 62.6 °F 50.0 °F 63% 30.53 in 10.0 mi Calm Calm - 0.02 in Thunderstorm Thunderstorm
3:15 PM 62.6 °F 50.0 °F 63% 30.51 in 10.0 mi South 6.9 mph - N/A Thunderstorm Thunderstorm
3:35 PM 62.6 °F 51.8 °F 68% 30.53 in 10.0 mi ESE 8.1 mph - N/A Thunderstorm Scattered Clouds
3:55 PM 64.4 °F 50.0 °F 59% 30.53 in 10.0 mi Calm Calm - N/A Thunderstorm Mostly Cloudy
4:15 PM 64.4 °F 50.0 °F 59% 30.52 in 10.0 mi Calm Calm - N/A Thunderstorm Thunderstorm
4:35 PM 64.4 °F 51.8 °F 64% 30.53 in 10.0 mi ESE 5.8 mph - N/A Thunderstorm Thunderstorm
4:55 PM 60.8 °F 50.0 °F 68% 30.54 in 10.0 mi ESE 13.8 mph 18.4 mph N/A Rain , Thunderstorm Light Thunderstorms and Rain
5:15 PM 60.8 °F 48.2 °F 63% 30.53 in 10.0 mi ESE 8.1 mph - N/A Thunderstorm Unknown
5:35 PM 57.2 °F 48.2 °F 72% 30.53 in 10.0 mi SE 5.8 mph 9.2 mph N/A Thunderstorm Thunderstorm
6:15 PM 57.2 °F 50.0 °F 77% 30.51 in 10.0 mi ESE 8.1 mph - 0.01 in Rain Light Rain
6:35 PM 57.2 °F 50.0 °F 77% 30.51 in 10.0 mi Calm Calm - 0.01 in   Scattered Clouds
8:35 PM 60.8 °F 46.4 °F 59% 30.53 in 10.0 mi ENE 4.6 mph - N/A Rain Light Rain
8:55 PM 60.8 °F 42.8 °F 52% 30.53 in 10.0 mi ESE 6.9 mph - N/A   Scattered Clouds
9:15 PM 60.8 °F 42.8 °F 52% 30.53 in 10.0 mi ENE 3.5 mph 18.4 mph N/A   Scattered Clouds
9:35 PM 60.8 °F 42.8 °F 52% 30.55 in 10.0 mi ESE 10.4 mph 18.4 mph N/A   Clear
10:15 PM 59.0 °F 42.8 °F 55% 30.53 in 10.0 mi Calm Calm - N/A   Mostly Cloudy
10:35 PM 59.0 °F 44.6 °F 59% 30.53 in 10.0 mi ESE 8.1 mph - N/A   Mostly Cloudy
10:55 PM 57.2 °F 46.4 °F 67% 30.52 in 10.0 mi ENE 3.5 mph - N/A   Scattered Clouds
11:15 PM 57.2 °F 46.4 °F 67% 30.51 in 10.0 mi ESE 10.4 mph - N/A   Scattered Clouds
11:35 PM 55.4 °F 44.6 °F 67% 30.52 in 10.0 mi ESE 6.9 mph - N/A   Mostly Cloudy
11:55 PM 55.4 °F 46.4 °F 72% 30.53 in 10.0 mi ESE 4.6 mph - N/A   Scattered Clouds